Weather in Trudarmeyskiy

Russia / Kemerovo Oblast     54°07′35″N   86°24′39″E
temp.,
°C
wind,
m/s
gust,
m/s
humid.,
%
clouds,
%
prec.,
mm/h
press.,
hPa
HPBL,
m
8 december, wed
wed801:00−5w5118982 1.1 1023616
04:00−11w5108945 0.0 1028278
07:00−15wsw389383 0.0 1033166
10:00−18sw249687 0.0 103698
13:00−15sw239199 0.1 1037227
16:00−14sw119592 0.1 103735
19:00−19sw229985 0.1 103911
22:00−23ssw229879 0.0 104114
9 december, thu
thu901:00−24s229843 0.0 104217
04:00−21s249694 0.0 104393
07:00−23s2495100 0.0 104582
10:00−21s2596100 0.1 1047166
13:00−19ssw3590100 0.1 1048301
16:00−18s4790100 0.0 1048329
19:00−19ssw499091 0.0 1050295
22:00−18ssw4991100 0.0 1050327
10 december, fri
fri1001:00−19s4991100 0.0 1050309
04:00−21s489520 0.0 1049159
07:00−19s4119296 0.0 1048330
10:00−17s51290100 0.1 1047390
13:00−14ssw51191100 0.4 1046511
16:00−13ssw51190100 0.3 1045514
19:00−13ssw51090100 0.6 1045418
22:00−12ssw41093100 0.1 1045393
11 december, sat
sat1101:00−11s489199 0.5 1044319
04:00−12sse4889100 0.0 1044241
07:00−12sse4886100 0.0 1042182
10:00−11sse4888100 0.0 1041144
13:00−9sse498899 0.0 1038189
16:00−9se4790100 0.0 1036112
19:00−10sse3691100 0.0 103370
22:00−11sse358899 0.0 103161
12 december, sun
sun1201:00−10sse3486100 0.0 102863
04:00−11sse3486100 0.0 102648
07:00−10sse3484100 0.0 102351
10:00−10sse3584100 0.0 102271
13:00−3sw51567100 0.0 1020582
16:00−4sw61268100 0.0 1020361
19:00−5sw51079100 0.0 1021357
22:00−7sw4987100 0.0 1022252